TimeCEST,TemperatureF,Dew PointF,Humidity,Sea Level PressureIn,VisibilityMPH,Wind Direction,Wind SpeedMPH,Gust SpeedMPH,PrecipitationIn,Events,Conditions,WindDirDegrees,DateUTC
12:25 AM,53.6,46.4,77,29.95,6.2,SE,9.2,-,N/A,Rain,Light Rain,130,2012-05-07 22:25:00
12:55 AM,53.6,44.6,72,29.95,6.2,SE,8.1,-,N/A,,Partly Cloudy,140,2012-05-07 22:55:00
1:25 AM,53.6,44.6,72,29.95,6.2,SE,9.2,-,N/A,,Unknown,140,2012-05-07 23:25:00
1:55 AM,53.6,44.6,72,29.92,6.2,SSE,11.5,-,N/A,,Unknown,150,2012-05-07 23:55:00
2:00 AM,54,44,60,29.94,11,SSE,11.2,,,,Partly Cloudy,150,2012-05-08 00:00:00
2:25 AM,53.6,44.6,72,29.92,6.2,SSE,10.4,-,N/A,,Unknown,150,2012-05-08 00:25:00
2:55 AM,53.6,44.6,72,29.92,6.2,SSE,10.4,-,N/A,,Unknown,160,2012-05-08 00:55:00
3:25 AM,53.6,44.6,72,29.89,6.2,SSE,10.4,-,N/A,,Unknown,160,2012-05-08 01:25:00
3:55 AM,53.6,44.6,72,29.89,6.2,SSE,11.5,-,N/A,,Unknown,160,2012-05-08 01:55:00
4:25 AM,53.6,46.4,77,29.89,6.2,South,10.4,-,N/A,,Partly Cloudy,170,2012-05-08 02:25:00
4:55 AM,53.6,46.4,77,29.89,6.2,SSE,11.5,-,N/A,Rain,Light Rain,160,2012-05-08 02:55:00
5:00 AM,52,47,79,29.89,10,SSE,8.9,,,Rain,Light Rain Showers,160,2012-05-08 03:00:00
5:25 AM,51.8,48.2,88,29.86,6.2,SSE,9.2,-,N/A,,Mostly Cloudy,160,2012-05-08 03:25:00
5:55 AM,51.8,48.2,88,29.86,6.2,SSE,9.2,-,N/A,,Unknown,160,2012-05-08 03:55:00
6:25 AM,51.8,46.4,82,29.86,6.2,SSE,9.2,-,N/A,,Unknown,160,2012-05-08 04:25:00
6:55 AM,51.8,46.4,82,29.86,6.2,SSE,9.2,-,N/A,,Drizzle,160,2012-05-08 04:55:00
7:25 AM,51.8,48.2,88,29.86,6.2,South,10.4,-,N/A,Rain,Light Rain Showers,170,2012-05-08 05:25:00
7:55 AM,51.8,48.2,88,29.86,6.2,South,4.6,-,N/A,Rain,Light Rain Showers,180,2012-05-08 05:55:00
8:00 AM,52,48,83,29.86,7,SSE,4.5,,,Rain,Light Rain,160,2012-05-08 06:00:00
8:25 AM,51.8,48.2,88,29.83,6.2,SSE,4.6,-,N/A,Rain,Light Rain,160,2012-05-08 06:25:00
8:55 AM,51.8,48.2,88,29.83,6.2,South,6.9,-,N/A,Rain,Light Rain,170,2012-05-08 06:55:00
9:25 AM,53.6,50.0,88,29.83,6.2,South,8.1,-,N/A,Rain,Drizzle,180,2012-05-08 07:25:00
9:55 AM,53.6,48.2,82,29.83,6.2,South,8.1,-,N/A,,Light Drizzle,180,2012-05-08 07:55:00
10:25 AM,53.6,50.0,88,29.83,6.2,South,9.2,-,N/A,Rain,Light Rain,170,2012-05-08 08:25:00
10:55 AM,55.4,50.0,82,29.83,6.2,South,9.2,-,N/A,Rain,Light Rain,170,2012-05-08 08:55:00
11:00 AM,55,50,79,29.84,12,SSE,11.2,,,Rain,Light Drizzle,160,2012-05-08 09:00:00
11:25 AM,55.4,51.8,88,29.83,6.2,SSE,10.4,-,N/A,Rain,Light Rain,160,2012-05-08 09:25:00
11:55 AM,55.4,50.0,82,29.80,6.2,South,12.7,-,N/A,,Light Drizzle,170,2012-05-08 09:55:00
12:25 PM,55.4,50.0,82,29.80,6.2,South,10.4,-,N/A,Rain,Light Rain,170,2012-05-08 10:25:00
12:55 PM,55.4,50.0,82,29.80,6.2,SSE,10.4,-,N/A,,Overcast,160,2012-05-08 10:55:00
1:25 PM,59.0,51.8,77,29.80,6.2,South,11.5,-,N/A,,Mostly Cloudy,170,2012-05-08 11:25:00
1:55 PM,60.8,51.8,72,29.77,6.2,South,16.1,-,N/A,,Partly Cloudy,180,2012-05-08 11:55:00
2:00 PM,61,53,67,29.79,19,South,15.7,,,,Partly Cloudy,190,2012-05-08 12:00:00
2:25 PM,60.8,53.6,77,29.77,6.2,South,15.0,-,N/A,,Scattered Clouds,190,2012-05-08 12:25:00
2:55 PM,60.8,53.6,77,29.77,6.2,South,16.1,-,N/A,,Scattered Clouds,190,2012-05-08 12:55:00
3:25 PM,60.8,53.6,77,29.77,6.2,South,15.0,-,N/A,,Scattered Clouds,190,2012-05-08 13:25:00
3:55 PM,60.8,53.6,77,29.77,6.2,SSW,11.5,-,N/A,,Overcast,210,2012-05-08 13:55:00
4:25 PM,60.8,53.6,77,29.77,6.2,SSW,10.4,-,N/A,,Overcast,200,2012-05-08 14:25:00
4:55 PM,60.8,55.4,82,29.77,6.2,SSW,9.2,-,N/A,,Mostly Cloudy,200,2012-05-08 14:55:00
5:00 PM,62,55,70,29.78,19,South,6.7,,,Rain,Drizzle,180,2012-05-08 15:00:00
5:25 PM,62.6,53.6,72,29.77,6.2,South,9.2,-,N/A,,Scattered Clouds,180,2012-05-08 15:25:00
5:55 PM,62.6,53.6,72,29.74,6.2,South,6.9,-,N/A,,Overcast,180,2012-05-08 15:55:00
6:25 PM,62.6,55.4,77,29.74,6.2,South,5.8,-,N/A,Rain,Rain,170,2012-05-08 16:25:00
6:55 PM,59.0,57.2,94,29.77,6.2,SW,8.1,-,N/A,,Drizzle,220,2012-05-08 16:55:00
7:25 PM,59.0,55.4,88,29.74,6.2,South,6.9,-,N/A,,Overcast,180,2012-05-08 17:25:00
7:55 PM,59.0,57.2,94,29.74,6.2,South,6.9,-,N/A,,Mostly Cloudy,180,2012-05-08 17:55:00
8:00 PM,59,56,88,29.77,7,South,6.7,,,Rain,Light Rain Showers,180,2012-05-08 18:00:00
8:25 PM,57.2,57.2,100,29.77,3.7,West,5.8,-,N/A,Rain,Light Rain Showers,280,2012-05-08 18:25:00
8:55 PM,55.4,53.6,94,29.77,-9999.0,WNW,4.6,-,N/A,,Drizzle,300,2012-05-08 18:55:00
9:25 PM,53.6,53.6,100,29.77,-9999.0,WNW,4.6,-,N/A,Rain,Rain Showers,290,2012-05-08 19:25:00
9:55 PM,53.6,53.6,100,29.77,2.8,Variable,1.2,-,N/A,,Partly Cloudy,0,2012-05-08 19:55:00
10:25 PM,53.6,53.6,100,29.77,1.6,Calm,Calm,-,N/A,Rain,Light Rain Showers,0,2012-05-08 20:25:00
10:55 PM,53.6,53.6,100,29.77,1.6,Variable,1.2,-,N/A,Rain,Rain Showers,0,2012-05-08 20:55:00
11:00 PM,54,54,100,29.79,1,Calm,Calm,,,Rain,Rain Showers,,2012-05-08 21:00:00
11:25 PM,53.6,53.6,100,29.77,1.2,Variable,2.3,-,N/A,Rain,Light Rain,0,2012-05-08 21:25:00
11:55 PM,53.6,53.6,100,29.77,1.4,South,1.2,-,N/A,,Mostly Cloudy,170,2012-05-08 21:55:00